Regional Weather Roundup
Issued by NWS

Home | Current Version | Previous Version | Text Only | Print | Product List | Glossary Off
Versions: 1 2 3 4 5 6 7 8 9 10 11 12 13 14 15 16 17 18 19 20 21 22 23 24 25 26 27 28 29 30 31 32 33 34 35 36 37 38 39 40 41 42 43 44 45 46 47 48 49 50

000
ASUS43 KLMK 201802
RWRKY
KENTUCKY REGIONAL WEATHER ROUNDUP
NATIONAL WEATHER SERVICE LOUISVILLE KY
200 PM EDT SUN APR 20 2014

NOTE "FAIR" INDICATES FEW OR NO CLOUDS BELOW 12,000 FEET
WITH NO SIGNIFICANT WEATHER AND/OR OBSTRUCTIONS TO VISIBILITY.

KYZ001>023-026-027-061>063-070>075-201900-
WESTERN AND SOUTH CENTRAL KENTUCKY

CITY           SKY/WX    TMP DP  RH WIND       PRES   REMARKS
PADUCAH        MOSUNNY   78  42  27 NE5       30.18F
HENDERSON      MOSUNNY   75  39  27 NW3       30.19F
OWENSBORO      MOSUNNY   73  37  26 VRB6      30.19F
HOPKINSVILLE   SUNNY     75  37  25 VRB3      30.19F
BOWLING GREEN  SUNNY     74  39  28 CALM      30.20F
GLASGOW        NOT AVBL
$$

KYZ024-025-028>034-038-045-046-053-201900-
NORTH CENTRAL KENTUCKY

CITY           SKY/WX    TMP DP  RH WIND       PRES   REMARKS
LOUISVILLE/SDF MOSUNNY   76  38  25 SE5       30.19F
LOUISVILLE/LOU SUNNY     76  39  26 E5        30.20F
FORT KNOX      SUNNY     74  39  27 VRB5      30.18F
$$

KYZ035>037-039>044-047>052-055>060-089>105-201900-
NORTHEAST KENTUCKY

CITY           SKY/WX    TMP DP  RH WIND       PRES   REMARKS
LEXINGTON      SUNNY     72  36  26 S5        30.22F
COVINGTON      MOSUNNY   73  33  23 E7        30.21F
FRANKFORT      SUNNY     73  39  29 VRB3      30.20F
$$

KYZ054-064>069-076>088-106>120-201900-
SOUTHEAST KENTUCKY

CITY           SKY/WX    TMP DP  RH WIND       PRES   REMARKS
JACKSON        SUNNY     73  34  23 MISG      30.23F
LONDON         SUNNY     73  38  27 VRB6      30.22F
SOMERSET       NOT AVBL
MIDDLESBORO    NOT AVBL
MONTICELLO     CLEAR     77  40  26 W6        30.21F
$$




USA.gov is the U.S. government's official web portal to all federal, state and local government web resources and services.